This is the latest recevied weather packets stored in our database for station/object DB0RES-5. If no packets are shown the sender has not sent any weather packets the latest 10 day(s).
| Time | Temp. | Humidity | Pressure | Rain* | Wind** | Luminosity | Snow |
|---|---|---|---|---|---|---|---|
| 1777544748 | 16.11° C | 31% | 1030.1 hPa | 0 mm | - | - | - |
| 1777544145 | 15.56° C | 31% | 1030.2 hPa | 0 mm | - | - | - |
| 1777543542 | 15° C | 32% | 1030.2 hPa | 0 mm | - | - | - |
| 1777542940 | 15° C | 33% | 1030.3 hPa | 0 mm | - | - | - |
| 1777542337 | 15° C | 33% | 1030.4 hPa | 0 mm | - | - | - |
| 1777541735 | 13.89° C | 34% | 1030.5 hPa | 0 mm | - | - | - |
| 1777541132 | 13.89° C | 35% | 1030.6 hPa | 0 mm | - | - | - |
| 1777540530 | 13.33° C | 35% | 1030.9 hPa | 0 mm | - | - | - |
| 1777539927 | 13.33° C | 35% | 1030.9 hPa | 0 mm | - | - | - |
| 1777539325 | 13.33° C | 35% | 1031.1 hPa | 0 mm | - | - | - |
| 1777538722 | 13.33° C | 36% | 1031.3 hPa | 0 mm | - | - | - |
| 1777538120 | 12.78° C | 36% | 1031.3 hPa | 0 mm | - | - | - |
| 1777537517 | 12.78° C | 36% | 1031.2 hPa | 0 mm | - | - | - |
| 1777536975 | 12.78° C | 37% | 1031.3 hPa | 0 mm | - | - | - |
| 1777536372 | 12.78° C | 36% | 1031.3 hPa | 0 mm | - | - | - |
| 1777535769 | 12.78° C | 36% | 1031.4 hPa | 0 mm | - | - | - |
| 1777535167 | 12.22° C | 37% | 1031.4 hPa | 0 mm | - | - | - |
| 1777534564 | 12.22° C | 38% | 1031.4 hPa | 0 mm | - | - | - |
| 1777533962 | 12.22° C | 40% | 1031.4 hPa | 0 mm | - | - | - |
| 1777533359 | 11.67° C | 42% | 1031.4 hPa | 0 mm | - | - | - |
| 1777532757 | 11.67° C | 43% | 1031.4 hPa | 0 mm | - | - | - |
| 1777532154 | 11.11° C | 44% | 1031.6 hPa | 0 mm | - | - | - |
| 1777531551 | 11.11° C | 45% | 1031.5 hPa | 0 mm | - | - | - |
| 1777530949 | 10.56° C | 46% | 1031.4 hPa | 0 mm | - | - | - |
| 1777530346 | 10.56° C | 46% | 1031.5 hPa | 0 mm | - | - | - |
* Rain latest hour (hover to see other rain measurements)
** Current wind speed in m/s (hover to see current wind gust speed)